N145NG VA88-VA88

Flight info

Callsign N145NG
Flight time 0h 3m
Altitude 1200
Route VFR
Aircraft EC45/L-G/C

Departure

Time 2026-05-06 12:41
Airport Sentara Norfolk General Hospital Heliport (VA88)

Arrival

Time 2026-05-06 12:44
Airport Sentara Norfolk General Hospital Heliport (VA88)
Time Latitude Longitude Altitude Speed Heading
2026-05-06 12:38 36.85122 -76.19154 23 ft 0 kts
2026-05-06 12:39 36.85124 -76.19151 82 ft 2 kts 17°
2026-05-06 12:40 36.85274 -76.19080 300 ft 52 kts 13°
2026-05-06 12:40 36.85814 -76.19017 393 ft 98 kts 349°
2026-05-06 12:40 36.86486 -76.19336 475 ft 111 kts 325°
2026-05-06 12:40 36.87050 -76.20023 570 ft 113 kts 303°
2026-05-06 12:41 36.87354 -76.20890 638 ft 106 kts 287°
2026-05-06 12:41 36.87550 -76.21742 624 ft 99 kts 285°
2026-05-06 12:41 36.87735 -76.22546 617 ft 94 kts 286°
2026-05-06 12:41 36.87931 -76.23317 603 ft 92 kts 288°
2026-05-06 12:42 36.88142 -76.24067 602 ft 91 kts 289°
2026-05-06 12:42 36.88309 -76.24799 609 ft 81 kts 279°
2026-05-06 12:42 36.88239 -76.25433 604 ft 69 kts 251°
2026-05-06 12:42 36.88033 -76.25950 599 ft 66 kts 239°
2026-05-06 12:43 36.87775 -76.26432 598 ft 68 kts 238°
2026-05-06 12:43 36.87501 -76.26939 598 ft 72 kts 237°
2026-05-06 12:43 36.87220 -76.27462 599 ft 75 kts 237°
2026-05-06 12:43 36.86927 -76.28006 601 ft 76 kts 237°
2026-05-06 12:44 36.86638 -76.28566 601 ft 77 kts 240°
2026-05-06 12:44 36.86380 -76.29117 459 ft 67 kts 242°
2026-05-06 12:44 36.86196 -76.29584 313 ft 53 kts 252°
2026-05-06 12:44 36.86127 -76.29976 188 ft 41 kts 270°
2026-05-06 12:45 36.86123 -76.30223 142 ft 16 kts 277°
2026-05-06 12:45 36.86149 -76.30291 126 ft 8 kts 282°
2026-05-06 12:45 36.86170 -76.30340 110 ft 0 kts 274°
2026-05-06 12:46 36.86171 -76.30342 111 ft 0 kts 294°